TimeCDT,TemperatureF,Dew PointF,Humidity,Sea Level PressureIn,VisibilityMPH,Wind Direction,Wind SpeedMPH,Gust SpeedMPH,PrecipitationIn,Events,Conditions,WindDirDegrees,DateUTC
12:15 AM,60.8,51.8,72,29.94,10.0,West,3.5,-,N/A,,Overcast,260,2013-05-23 05:15:00
12:35 AM,60.8,51.8,72,29.94,10.0,West,3.5,-,N/A,,Overcast,260,2013-05-23 05:35:00
12:55 AM,60.8,53.6,77,29.94,10.0,Calm,Calm,-,N/A,,Overcast,0,2013-05-23 05:55:00
1:15 AM,60.8,51.8,72,29.94,10.0,Calm,Calm,-,N/A,,Overcast,0,2013-05-23 06:15:00
1:35 AM,59.0,51.8,77,29.94,9.0,West,3.5,-,N/A,,Scattered Clouds,260,2013-05-23 06:35:00
1:55 AM,55.4,51.8,88,29.94,10.0,Calm,Calm,-,N/A,,Clear,0,2013-05-23 06:55:00
2:15 AM,57.2,51.8,82,29.94,10.0,WNW,3.5,-,N/A,,Clear,300,2013-05-23 07:15:00
2:35 AM,55.4,51.8,88,29.94,10.0,Calm,Calm,-,N/A,,Clear,0,2013-05-23 07:35:00
2:55 AM,53.6,51.8,94,29.94,10.0,Calm,Calm,-,N/A,,Clear,0,2013-05-23 07:55:00
3:15 AM,53.6,51.8,94,29.95,10.0,Calm,Calm,-,N/A,,Clear,0,2013-05-23 08:15:00
3:35 AM,53.6,50.0,88,29.95,10.0,Calm,Calm,-,N/A,,Clear,0,2013-05-23 08:35:00
3:55 AM,53.6,50.0,88,29.96,10.0,Calm,Calm,-,N/A,,Clear,0,2013-05-23 08:55:00
4:15 AM,53.6,50.0,88,29.97,10.0,Calm,Calm,-,N/A,,Clear,0,2013-05-23 09:15:00
4:35 AM,53.6,50.0,88,29.98,10.0,West,3.5,-,N/A,,Scattered Clouds,270,2013-05-23 09:35:00
4:55 AM,53.6,51.8,94,29.98,10.0,Calm,Calm,-,N/A,,Overcast,0,2013-05-23 09:55:00
5:15 AM,53.6,51.8,94,29.99,10.0,Calm,Calm,-,N/A,,Scattered Clouds,0,2013-05-23 10:15:00
5:35 AM,53.6,51.8,94,30.00,10.0,West,3.5,-,N/A,,Clear,260,2013-05-23 10:35:00
5:55 AM,51.8,48.2,88,30.00,10.0,Calm,Calm,-,N/A,,Clear,0,2013-05-23 10:55:00
6:15 AM,53.6,50.0,88,30.01,10.0,WNW,4.6,-,N/A,,Partly Cloudy,290,2013-05-23 11:15:00
6:35 AM,53.6,51.8,94,30.03,10.0,WNW,3.5,-,N/A,,Mostly Cloudy,300,2013-05-23 11:35:00
6:55 AM,55.4,51.8,88,30.04,10.0,Calm,Calm,-,N/A,,Mostly Cloudy,0,2013-05-23 11:55:00
7:15 AM,57.2,51.8,82,30.04,10.0,NW,3.5,-,N/A,,Clear,320,2013-05-23 12:15:00
7:35 AM,57.2,51.8,82,30.05,10.0,NW,5.8,-,N/A,,Scattered Clouds,320,2013-05-23 12:35:00
7:55 AM,59.0,48.2,67,30.05,10.0,NW,5.8,-,N/A,,Partly Cloudy,320,2013-05-23 12:55:00
8:15 AM,60.8,48.2,63,30.06,10.0,NNW,3.5,-,N/A,,Partly Cloudy,330,2013-05-23 13:15:00
8:35 AM,60.8,46.4,59,30.07,10.0,NNW,9.2,16.1,N/A,,Clear,340,2013-05-23 13:35:00
8:55 AM,60.8,48.2,63,30.07,10.0,North,10.4,16.1,N/A,,Partly Cloudy,350,2013-05-23 13:55:00
9:15 AM,60.8,48.2,63,30.06,10.0,NNW,8.1,-,N/A,,Partly Cloudy,340,2013-05-23 14:15:00
9:35 AM,62.6,48.2,59,30.05,10.0,North,6.9,18.4,N/A,,Partly Cloudy,350,2013-05-23 14:35:00
9:55 AM,62.6,48.2,59,30.07,10.0,North,8.1,17.3,N/A,,Scattered Clouds,350,2013-05-23 14:55:00
10:15 AM,62.6,50.0,63,30.09,10.0,North,8.1,-,N/A,,Mostly Cloudy,10,2013-05-23 15:15:00
10:35 AM,62.6,48.2,59,30.11,10.0,NNW,8.1,-,N/A,,Mostly Cloudy,340,2013-05-23 15:35:00
10:55 AM,62.6,50.0,63,30.13,10.0,NW,6.9,-,N/A,,Overcast,310,2013-05-23 15:55:00
11:15 AM,62.6,50.0,63,30.13,10.0,North,5.8,-,N/A,,Overcast,10,2013-05-23 16:15:00
11:35 AM,60.8,48.2,63,30.14,10.0,NW,4.6,-,N/A,,Overcast,320,2013-05-23 16:35:00
11:55 AM,62.6,48.2,59,30.14,10.0,WNW,6.9,-,N/A,,Overcast,290,2013-05-23 16:55:00
12:15 PM,62.6,48.2,59,30.15,10.0,NNW,6.9,-,N/A,,Overcast,340,2013-05-23 17:15:00
12:35 PM,62.6,50.0,63,30.15,10.0,NW,6.9,-,N/A,,Overcast,320,2013-05-23 17:35:00
12:55 PM,62.6,51.8,68,30.15,10.0,NNW,5.8,-,N/A,,Overcast,330,2013-05-23 17:55:00
1:15 PM,62.6,51.8,68,30.15,10.0,NNW,6.9,-,N/A,,Overcast,340,2013-05-23 18:15:00
1:35 PM,64.4,50.0,59,30.15,10.0,NW,6.9,-,N/A,,Overcast,310,2013-05-23 18:35:00
1:55 PM,64.4,51.8,64,30.15,10.0,North,8.1,-,N/A,,Overcast,350,2013-05-23 18:55:00
2:15 PM,64.4,51.8,64,30.15,10.0,North,3.5,-,N/A,,Overcast,350,2013-05-23 19:15:00
2:35 PM,64.4,51.8,64,30.16,10.0,WNW,8.1,-,N/A,,Overcast,300,2013-05-23 19:35:00
2:55 PM,66.2,51.8,60,30.16,10.0,NW,5.8,-,N/A,,Mostly Cloudy,320,2013-05-23 19:55:00
3:15 PM,66.2,51.8,60,30.15,10.0,North,6.9,-,N/A,,Overcast,10,2013-05-23 20:15:00
3:35 PM,66.2,51.8,60,30.15,10.0,North,8.1,-,N/A,,Overcast,350,2013-05-23 20:35:00
3:55 PM,68.0,51.8,56,30.15,10.0,North,4.6,-,N/A,,Overcast,360,2013-05-23 20:55:00
4:15 PM,66.2,51.8,60,30.15,10.0,North,6.9,-,N/A,,Overcast,360,2013-05-23 21:15:00
4:35 PM,66.2,53.6,64,30.15,10.0,NE,9.2,17.3,N/A,,Overcast,40,2013-05-23 21:35:00
4:55 PM,66.2,53.6,64,30.15,10.0,NNE,8.1,-,N/A,,Mostly Cloudy,30,2013-05-23 21:55:00
5:15 PM,66.2,51.8,60,30.15,10.0,NNE,6.9,-,N/A,,Scattered Clouds,30,2013-05-23 22:15:00
5:35 PM,64.4,53.6,68,30.16,10.0,North,4.6,-,N/A,,Mostly Cloudy,10,2013-05-23 22:35:00
5:55 PM,66.2,51.8,60,30.16,10.0,NNE,6.9,-,N/A,,Overcast,20,2013-05-23 22:55:00
6:15 PM,64.4,51.8,64,30.16,10.0,NNE,4.6,-,N/A,,Overcast,20,2013-05-23 23:15:00
6:35 PM,64.4,51.8,64,30.16,10.0,NNE,6.9,-,N/A,,Overcast,30,2013-05-23 23:35:00
6:55 PM,64.4,51.8,64,30.16,10.0,NNE,5.8,-,N/A,,Overcast,20,2013-05-23 23:55:00
7:15 PM,62.6,53.6,72,30.16,10.0,NNE,4.6,-,N/A,,Scattered Clouds,20,2013-05-24 00:15:00
7:35 PM,64.4,53.6,68,30.16,10.0,NNE,5.8,-,N/A,,Mostly Cloudy,20,2013-05-24 00:35:00
7:55 PM,62.6,51.8,68,30.17,10.0,NE,10.4,-,N/A,,Mostly Cloudy,40,2013-05-24 00:55:00
8:15 PM,62.6,51.8,68,30.17,10.0,NE,5.8,-,N/A,,Clear,40,2013-05-24 01:15:00
8:35 PM,60.8,51.8,72,30.18,10.0,NNE,3.5,-,N/A,,Clear,20,2013-05-24 01:35:00
8:55 PM,59.0,51.8,77,30.18,6.0,NNE,4.6,-,N/A,,Clear,30,2013-05-24 01:55:00
9:15 PM,59.0,51.8,77,30.19,10.0,NNE,3.5,-,N/A,,Clear,30,2013-05-24 02:15:00
9:35 PM,57.2,51.8,82,30.19,10.0,NE,4.6,-,N/A,,Mostly Cloudy,40,2013-05-24 02:35:00
9:55 PM,57.2,51.8,82,30.21,10.0,Calm,Calm,-,N/A,,Mostly Cloudy,0,2013-05-24 02:55:00
10:15 PM,57.2,51.8,82,30.21,10.0,NE,3.5,-,N/A,,Clear,50,2013-05-24 03:15:00
10:35 PM,55.4,51.8,88,30.22,10.0,Calm,Calm,-,N/A,,Clear,0,2013-05-24 03:35:00
10:55 PM,55.4,51.8,88,30.22,10.0,Calm,Calm,-,N/A,,Clear,0,2013-05-24 03:55:00
11:15 PM,53.6,50.0,88,30.22,10.0,Calm,Calm,-,N/A,,Clear,0,2013-05-24 04:15:00
11:35 PM,53.6,51.8,94,30.23,10.0,Calm,Calm,-,N/A,,Clear,0,2013-05-24 04:35:00
11:55 PM,51.8,48.2,88,30.23,10.0,NE,4.6,-,N/A,,Clear,40,2013-05-24 04:55:00